Marysville, MI

7:44 PM EDT on August 28, 2016 (GMT -0400)
Saint Clair County International

Weather History for KPHN - February, 2012

Change the Weather History Date:

Wednesday, February 15, 2012

  Actual Average (KMTC) Record (KMTC)
Temperature  
Mean Temperature 34 °F -  
Max Temperature 37 °F 32 °F 64 °F (1954)
Min Temperature 30 °F 19 °F -9 °F (2015)
Degree Days  
Heating Degree Days 32    
Moisture  
Dew Point 27 °F    
Average Humidity 76    
Maximum Humidity 86    
Minimum Humidity 65    
Precipitation  
Precipitation 0.00 in - - ()
Sea Level Pressure  
Sea Level Pressure 30.13 in    
Wind  
Wind Speed 6 mph (SSW)    
Max Wind Speed 15 mph    
Max Gust Speed 18 mph    
Visibility 10 miles    
Events      
Averages and records for this station are not official NWS values.
T = Trace of Precipitation, MM = Missing Value Source: NWS Daily Summary

Daily Weather History Graph

Daily Weather History Graph

Search for Another Location

Airport or City:

Trip Planner

Search our weather history database for the weather conditions in past years. The results will help you decide how hot, cold, wet, or windy it might be!

Date:

Astronomy

Feb. 15, 2012 Rise Set
Actual Time 7:28 AM EST 6:00 PM EST
Civil Twilight 6:59 AM EST 6:30 PM EST
Nautical Twilight 6:25 AM EST 7:03 PM EST
Astronomical Twilight 5:53 AM EST 7:36 PM EST
Moon 2:24 AM EST (2/15) 11:50 AM EST (2/15)
Length of Visible Light 11h 31m
Length of Day
10h 32m
Last Quarter, 39% of the Moon is Illuminated
Feb 15
Last Quarter
Feb 21
New
Feb 29
First Quarter
Mar 8
Full
Mar 14
Last Quarter

Hourly Weather History & Observations

Time (EST) Temp. Windchill Dew Point Humidity Pressure Visibility Wind Dir Wind Speed Gust Speed Precip Events Conditions
12:16 AM 32.0 °F 28.7 °F 26.6 °F 80% 30.02 in 10.0 mi SW 3.5 mph - N/A   Overcast
12:37 AM 32.0 °F 28.7 °F 26.6 °F 80% 30.02 in 10.0 mi SW 3.5 mph - N/A   Overcast
12:56 AM 32.0 °F 28.7 °F 26.6 °F 80% 30.03 in 10.0 mi SW 3.5 mph - N/A   Overcast
1:17 AM 32.0 °F 27.5 °F 26.6 °F 80% 30.03 in 10.0 mi SW 4.6 mph - N/A   Overcast
1:36 AM 32.0 °F 28.7 °F 26.6 °F 80% 30.03 in 10.0 mi SW 3.5 mph - N/A   Overcast
1:56 AM 32.0 °F 27.5 °F 26.6 °F 80% 30.04 in 10.0 mi SW 4.6 mph - N/A   Overcast
2:16 AM 32.0 °F 28.7 °F 26.6 °F 80% 30.04 in 10.0 mi SW 3.5 mph - N/A   Overcast
2:36 AM 32.0 °F 28.7 °F 26.6 °F 80% 30.05 in 10.0 mi SSW 3.5 mph - N/A   Overcast
2:56 AM 30.2 °F 26.7 °F 26.6 °F 86% 30.06 in 10.0 mi SW 3.5 mph - N/A   Scattered Clouds
3:17 AM 30.2 °F 26.7 °F 26.6 °F 86% 30.06 in 10.0 mi SSW 3.5 mph - N/A   Mostly Cloudy
3:36 AM 30.2 °F 26.7 °F 26.6 °F 86% 30.06 in 10.0 mi SW 3.5 mph - N/A   Overcast
3:56 AM 32.0 °F 27.5 °F 26.6 °F 80% 30.07 in 10.0 mi SSW 4.6 mph - N/A   Overcast
4:16 AM 32.0 °F 28.7 °F 26.6 °F 80% 30.07 in 10.0 mi SSW 3.5 mph - N/A   Overcast
4:36 AM 32.0 °F 27.5 °F 26.6 °F 80% 30.08 in 10.0 mi SSW 4.6 mph - N/A   Overcast
4:57 AM 32.0 °F 27.5 °F 26.6 °F 80% 30.09 in 10.0 mi SSW 4.6 mph - N/A   Overcast
5:16 AM 32.0 °F 28.7 °F 26.6 °F 80% 30.10 in 10.0 mi SSW 3.5 mph - N/A   Overcast
5:37 AM 32.0 °F 27.5 °F 26.6 °F 80% 30.11 in 10.0 mi SSW 4.6 mph - N/A   Overcast
5:56 AM 32.0 °F 27.5 °F 26.6 °F 80% 30.11 in 10.0 mi SW 4.6 mph - N/A   Overcast
6:16 AM 32.0 °F 28.7 °F 26.6 °F 80% 30.12 in 10.0 mi SSW 3.5 mph - N/A   Overcast
6:37 AM 32.0 °F 26.4 °F 26.6 °F 80% 30.12 in 10.0 mi SSW 5.8 mph - N/A   Overcast
6:56 AM 32.0 °F 27.5 °F 26.6 °F 80% 30.14 in 10.0 mi SW 4.6 mph - N/A   Overcast
7:16 AM 32.0 °F 26.4 °F 26.6 °F 80% 30.14 in 10.0 mi SSW 5.8 mph - N/A   Overcast
7:37 AM 32.0 °F 26.4 °F 26.6 °F 80% 30.15 in 10.0 mi SSW 5.8 mph - N/A   Overcast
7:56 AM 32.0 °F 26.4 °F 26.6 °F 80% 30.15 in 10.0 mi SSW 5.8 mph - N/A   Overcast
8:16 AM 32.0 °F 27.5 °F 26.6 °F 80% 30.16 in 10.0 mi SW 4.6 mph - N/A   Overcast
8:36 AM 33.8 °F 30.8 °F 26.6 °F 75% 30.16 in 10.0 mi SSW 3.5 mph - N/A   Overcast
8:56 AM 33.8 °F 29.6 °F 26.6 °F 75% 30.17 in 10.0 mi SSW 4.6 mph - N/A   Overcast
9:16 AM 33.8 °F 28.6 °F 26.6 °F 75% 30.18 in 10.0 mi SSW 5.8 mph - N/A   Overcast
9:36 AM 33.8 °F 27.7 °F 26.6 °F 75% 30.18 in 10.0 mi SSW 6.9 mph - N/A   Overcast
9:57 AM 33.8 °F 27.0 °F 26.6 °F 75% 30.18 in 10.0 mi SSW 8.1 mph - N/A   Overcast
10:16 AM 33.8 °F 26.4 °F 26.6 °F 75% 30.18 in 10.0 mi South 9.2 mph - N/A   Overcast
10:36 AM 33.8 °F 26.4 °F 26.6 °F 75% 30.18 in 10.0 mi SSW 9.2 mph - N/A   Overcast
10:57 AM 35.6 °F 28.6 °F 26.6 °F 70% 30.18 in 10.0 mi SSW 9.2 mph - N/A   Overcast
11:17 AM 35.6 °F 27.5 °F 26.6 °F 70% 30.18 in 10.0 mi South 11.5 mph - N/A   Overcast
11:37 AM 35.6 °F 28.0 °F 26.6 °F 70% 30.19 in 10.0 mi SSW 10.4 mph - N/A   Overcast
11:56 AM 35.6 °F 26.2 °F 26.6 °F 70% 30.18 in 10.0 mi South 15.0 mph - N/A   Overcast
12:16 PM 35.6 °F 27.5 °F 26.6 °F 70% 30.17 in 10.0 mi South 11.5 mph 17.3 mph N/A   Overcast
12:36 PM 35.6 °F 26.2 °F 26.6 °F 70% 30.16 in 10.0 mi SSW 15.0 mph 18.4 mph N/A   Overcast
12:56 PM 35.6 °F 28.6 °F 26.6 °F 70% 30.16 in 10.0 mi SSW 9.2 mph - N/A   Overcast
1:16 PM 35.6 °F 26.6 °F 26.6 °F 70% 30.15 in 10.0 mi SSW 13.8 mph - N/A   Overcast
1:36 PM 35.6 °F 28.6 °F 26.6 °F 70% 30.14 in 10.0 mi SSW 9.2 mph 16.1 mph N/A   Overcast
1:56 PM 37.4 °F 30.3 °F 26.6 °F 65% 30.14 in 10.0 mi SSW 10.4 mph - N/A   Overcast
2:16 PM 37.4 °F 28.5 °F 28.4 °F 70% 30.14 in 10.0 mi South 15.0 mph - N/A   Overcast
2:36 PM 37.4 °F 30.3 °F 28.4 °F 70% 30.14 in 10.0 mi SSW 10.4 mph - N/A   Overcast
2:56 PM 37.4 °F 29.8 °F 28.4 °F 70% 30.14 in 10.0 mi South 11.5 mph - N/A   Overcast
3:17 PM 37.4 °F 30.3 °F 28.4 °F 70% 30.14 in 10.0 mi SSW 10.4 mph - N/A   Overcast
3:36 PM 37.4 °F 29.3 °F 28.4 °F 70% 30.14 in 10.0 mi South 12.7 mph - N/A   Overcast
3:56 PM 37.4 °F 31.4 °F 28.4 °F 70% 30.14 in 10.0 mi South 8.1 mph 17.3 mph N/A   Overcast
4:16 PM 37.4 °F 29.3 °F 28.4 °F 70% 30.14 in 10.0 mi South 12.7 mph 16.1 mph N/A   Mostly Cloudy
4:36 PM 37.4 °F 29.3 °F 28.4 °F 70% 30.14 in 10.0 mi South 12.7 mph 17.3 mph N/A   Mostly Cloudy
4:57 PM 35.6 °F 27.5 °F 28.4 °F 75% 30.14 in 10.0 mi South 11.5 mph - N/A   Scattered Clouds
5:16 PM 35.6 °F 28.0 °F 28.4 °F 75% 30.15 in 10.0 mi South 10.4 mph - N/A   Scattered Clouds
5:37 PM 33.8 °F 24.3 °F 26.6 °F 75% 30.16 in 10.0 mi South 13.8 mph 18.4 mph N/A   Scattered Clouds
5:56 PM 33.8 °F 25.3 °F 26.6 °F 75% 30.16 in 7.0 mi South 11.5 mph 17.3 mph N/A   Clear
6:16 PM 33.8 °F 27.0 °F 26.6 °F 75% 30.16 in 7.0 mi South 8.1 mph - N/A   Clear
6:37 PM 32.0 °F 25.6 °F 26.6 °F 80% 30.16 in 7.0 mi South 6.9 mph - N/A   Scattered Clouds
6:57 PM 32.0 °F 26.4 °F 26.6 °F 80% 30.16 in 7.0 mi South 5.8 mph - N/A   Scattered Clouds
7:16 PM 32.0 °F 25.6 °F 26.6 °F 80% 30.15 in 7.0 mi South 6.9 mph - N/A   Clear
7:37 PM 32.0 °F 27.5 °F 26.6 °F 80% 30.15 in 7.0 mi South 4.6 mph - N/A   Mostly Cloudy
7:56 PM 32.0 °F 27.5 °F 26.6 °F 80% 30.16 in 10.0 mi South 4.6 mph - N/A   Scattered Clouds
8:16 PM 32.0 °F 28.7 °F 28.4 °F 87% 30.16 in 7.0 mi SSW 3.5 mph - N/A   Mostly Cloudy
8:36 PM 32.0 °F 28.7 °F 28.4 °F 87% 30.15 in 7.0 mi South 3.5 mph - N/A   Overcast
8:56 PM 32.0 °F 28.7 °F 28.4 °F 87% 30.14 in 10.0 mi South 3.5 mph - N/A   Overcast
9:17 PM 32.0 °F 28.7 °F 28.4 °F 87% 30.14 in 10.0 mi SSE 3.5 mph - N/A   Overcast
9:36 PM 33.8 °F 28.6 °F 28.4 °F 81% 30.14 in 10.0 mi SSE 5.8 mph - N/A   Overcast
9:57 PM 33.8 °F 27.7 °F 28.4 °F 81% 30.14 in 7.0 mi SSE 6.9 mph - N/A   Overcast
10:16 PM 33.8 °F 27.7 °F 28.4 °F 81% 30.13 in 7.0 mi SSE 6.9 mph - N/A   Overcast
10:36 PM 33.8 °F 29.6 °F 28.4 °F 81% 30.13 in 7.0 mi SSE 4.6 mph - N/A   Overcast
10:57 PM 33.8 °F 30.8 °F 30.2 °F 87% 30.12 in 5.0 mi SSE 3.5 mph - N/A   Overcast
11:17 PM 33.8 °F 29.6 °F 30.2 °F 87% 30.12 in 4.0 mi SSE 4.6 mph - N/A   Overcast
11:37 PM 32.0 °F 27.5 °F 30.2 °F 93% 30.11 in 4.0 mi SE 4.6 mph - N/A   Overcast
11:56 PM 32.0 °F 27.5 °F 30.2 °F 93% 30.10 in 5.0 mi SE 4.6 mph - N/A   Overcast